Home   Weather   Chelyabinsk   Past weeks

Flag for Russia Past Weather in Chelyabinsk, Russia — Yesterday and Last 2 Weeks

Now
50 °F

Passing clouds.


Feels Like: 50 °F
Forecast: 50 / 77 °F
Wind: 1 mph from North

Location: Chelyabinsk-Balandino

Current Time: Aug 31, 2016 at 12:10:03 AM

Latest Report: Aug 30, 2016 at 11:30 PM


Visibility: N/A

Pressure: 30.12 "Hg

Humidity: 67%

Dew Point: 39 °F

Location of ChelyabinskLocation

Past Weather in Chelyabinsk — Graph

°F

Chelyabinsk Temperature Yesterday

Maximum temperature yesterday: 63 °F (at 4:00 PM)
Minimum temperature yesterday: 37 °F (at 5:00 AM)
Average temperature yesterday: 51 °F

High & Low Weather Summary for the Past Weeks

 TemperatureHumidityPressure
High91 °F (Aug 16, 3:00 PM)100% (Aug 18, 4:00 AM)30.42 "Hg (Aug 18, 4:00 AM)
Low37 °F (Aug 30, 5:00 AM)20% (Aug 26, 5:00 PM)29.53 "Hg (Aug 29, 3:30 AM)
Average69 °F59%30.12 "Hg
* Reported Aug 15 11:00 PM — Aug 30 11:00 PM, Chelyabinsk, Weather by CustomWeather, © 2016

Note: Actual official high and low records may vary slightly from our data, if they occured in-between our weather recording intervals... More about our weather records

Advertising

Chelyabinsk Weather History for the Previous 24 Hours

Scroll right to see more
 ConditionsComfort  
Time TempWeatherWind HumidityBarometerVisibility
11:00 PM
Tue, Aug 30
54 °FPassing clouds.1 mph54%30.12 "HgN/A
10:30 PM55 °FPassing clouds.1 mph47%30.12 "HgN/A
10:00 PM55 °FPassing clouds.1 mph41%30.12 "HgN/A
9:30 PM54 °FPassing clouds.3 mph47%30.12 "HgN/A
9:00 PM54 °FPassing clouds.3 mph47%30.12 "HgN/A
8:30 PM54 °FPassing clouds.3 mph47%30.12 "HgN/A
8:00 PM55 °FSunny.3 mph38%30.12 "Hg10 mi
7:30 PM54 °FSunny.3 mph44%30.12 "Hg10 mi
7:00 PM55 °FSunny.6 mph41%30.12 "Hg10 mi
6:30 PM61 °FSunny.6 mph31%30.12 "Hg10 mi
6:00 PM61 °FSunny.8 mph29%30.12 "Hg10 mi
5:30 PM63 °FPassing clouds.8 mph27%30.12 "HgN/A
5:00 PM63 °FSunny.10 mph25%30.12 "Hg10 mi
4:30 PM63 °FPassing clouds.10 mph27%30.12 "HgN/A
4:00 PM63 °FPassing clouds.10 mph30%30.12 "HgN/A
3:30 PM61 °FPassing clouds.13 mph29%30.12 "HgN/A
3:00 PM61 °FScattered clouds.13 mph29%30.12 "HgN/A
2:30 PM61 °FScattered clouds.10 mph29%30.15 "HgN/A
2:00 PM61 °FPartly sunny.13 mph31%30.15 "HgN/A
1:30 PM61 °FPartly sunny.15 mph31%30.15 "HgN/A
1:00 PM59 °FScattered clouds.15 mph34%30.12 "HgN/A
12:30 PM59 °FScattered clouds.15 mph36%30.12 "HgN/A
12:00 PM57 °FScattered clouds.15 mph39%30.12 "HgN/A
11:30 AM57 °FScattered clouds.15 mph39%30.12 "HgN/A
11:00 AM55 °FScattered clouds.13 mph44%30.12 "HgN/A
10:30 AM54 °FScattered clouds.13 mph51%30.12 "HgN/A
10:00 AM50 °FScattered clouds.10 mph62%30.15 "HgN/A
9:30 AM50 °FScattered clouds.13 mph62%30.15 "HgN/A
9:00 AM50 °FPassing clouds.13 mph62%30.12 "HgN/A
8:30 AM48 °FPassing clouds.10 mph66%30.12 "HgN/A
8:00 AM46 °FPassing clouds.13 mph71%30.12 "HgN/A
7:30 AM45 °FSunny.8 mph81%30.09 "Hg10 mi
7:00 AM41 °FSunny.8 mph87%30.09 "Hg10 mi
6:30 AM39 °FClear.8 mph87%30.09 "Hg10 mi
6:00 AM39 °FClear.8 mph87%30.07 "Hg10 mi
5:30 AM37 °FClear.10 mph87%30.07 "Hg10 mi
5:00 AM37 °FClear.10 mph87%30.07 "Hg10 mi
4:30 AM39 °FClear.10 mph81%30.07 "Hg10 mi
4:00 AM41 °FClear.8 mph76%30.04 "Hg10 mi
3:30 AM43 °FClear.8 mph71%30.04 "Hg10 mi
3:00 AM43 °FClear.8 mph71%30.04 "Hg10 mi
2:30 AM43 °FClear.10 mph66%30.01 "Hg10 mi
2:00 AM43 °FClear.10 mph66%30.01 "Hg10 mi
1:30 AM43 °FClear.8 mph66%30.01 "Hg10 mi
1:00 AM45 °FClear.13 mph57%29.98 "Hg10 mi
12:30 AM45 °FClear.10 mph57%29.98 "Hg10 mi
12:00 AM45 °FClear.10 mph57%29.98 "Hg10 mi
Weather by CustomWeather, © 2016

See weather overviewHow to use our weather pages